Regional Weather Roundup
Issued by NWS

Home | Current Version | Previous Version | Text Only | Print | Product List | Glossary On
Versions: 1 2 3 4 5 6 7 8 9 10 11 12 13 14 15 16 17 18 19 20 21 22 23 24 25 26 27 28 29 30 31 32 33 34 35 36 37 38 39 40 41 42 43 44 45 46 47 48 49 50
000
ASUS42 KFFC 132303
RWRGA
WEATHER ROUNDUP FOR GEORGIA
NATIONAL WEATHER SERVICE PEACHTREE CITY GA
600 PM EST SAT FEB 13 2016

NOTE: "FAIR" INDICATES FEW OR NO CLOUDS BELOW 12,000 FEET WITH NO
SIGNIFICANT WEATHER AND/OR OBSTRUCTIONS TO VISIBILITY.

* = USE WITH CAUTION. THE STATIONS MARKED WITH AN ASTERISK MAY NOT
REPORT WEATHER SUCH AS PRECIPITATION, FOG, OR THUNDER AND ARE NOT
QUALITY CONTROLLED BY NWS.

THE REMARK "TC" DENOTES TEMPERATURE READING IN DEGREES CELSIUS.

GAZ001>058-140000-
NORTH GEORGIA

CITY           SKY/WX    TMP DP  RH WIND       PRES   REMARKS
ATLANTA        CLEAR     39   5  24 N14       30.35R WCI  31
ATHENS         CLEAR     42  -2  15 NW10G18   30.29R
CHAMBLEE       CLEAR     37   5  26 NW18      30.34R WCI  27
PEACHTREE CITY CLEAR     41   6  23 N13       30.35R
ROME           CLEAR     38   3  23 N12       30.39R WCI  30
WEST ATLANTA   CLEAR     39   3  22 NW12      30.36R WCI  32
GAINESVILLE    CLEAR     38   1  21 NW10      30.31R WCI  31
CARTERSVILLE   CLEAR     37   4  25 N8        30.39R WCI  31


CITY           SKY/WX    TMP DP  RH WIND       PRES   REMARKS
DALTON*        CLEAR     36   9  32 N9G17     30.40R WCI  29
LAWRENCEVILLE* CLEAR     37   5  25 W13       30.31R WCI  29
KENNESAW*      CLEAR     36   3  25 N12G17    30.37R WCI  27
BLAIRSVILLE*     N/A     31  32 100 N6        30.32R WCI  25
$$

GAZ059>098-102>109-140000-
CENTRAL GEORGIA

CITY           SKY/WX    TMP DP  RH WIND       PRES   REMARKS
AUGUSTA-BUSH   CLEAR     47  10  22 NW8       30.30R
AUGUSTA-DANIEL CLEAR     47   9  21 NW6       30.29R
COLUMBUS       CLEAR     48   9  20 N8        30.34R
MACON          CLEAR     45   7  21 NW8       30.33R
ROBINS AFB     CLEAR     46   3  17 N10       30.32R


CITY           SKY/WX    TMP DP  RH WIND       PRES   REMARKS
LAGRANGE*      CLEAR     47  15  27 N5        30.34S
SYLVANIA*      CLEAR     50  24  35 N5        30.30R
MILLEDGEVILLE* CLEAR     45   7  21 NW7       30.32S
$$

GAZ099>101-110>166-140000-
SOUTH GEORGIA

CITY           SKY/WX    TMP DP  RH WIND       PRES   REMARKS
SAVANNAH       CLEAR     50  19  29 NW8       30.29R
VALDOSTA       CLEAR     52  20  28 MISG      30.29R
ALMA           CLEAR     51  17  26 NW10      30.29R
ST SIMONS      CLEAR     48  35  60 E7        30.28R
FT STEWART     CLEAR     51  21  31 NW5       30.27R
ALBANY         CLEAR     52  12  20 NW9       30.34R
HUNTER AFB     CLEAR     50  20  31 NW9       30.26R
MOODY AFB      CLEAR     52  20  29 NW7       30.29R
BRUNSWICK      CLEAR     50  36  57 E7        30.29R


CITY           SKY/WX    TMP DP  RH WIND       PRES   REMARKS
BAINBRIDGE*    CLEAR     55  18  22 N8        30.31S
MOULTRIE*      CLEAR     54  21  28 N7        30.31R
VIDALIA*       CLEAR     52  14  22 NW9       30.29R
WAYCROSS*      CLEAR     54  22  29 N9        30.29R
DOUGLAS*       CLEAR     52  14  22 NW7       30.31R
$$



USA.gov is the U.S. government's official web portal to all federal, state and local government web resources and services.